Bangor, ME

7:22 AM EST on February 27, 2017 (GMT -0500)
Bangor International

Weather History for KBGR - May, 2012

Change the Weather History Date:

Saturday, May 12, 2012

  Actual Average Record
Temperature  
Mean Temperature 56 °F 52 °F  
Max Temperature 69 °F 64 °F 83 °F (1991)
Min Temperature 42 °F 41 °F 29 °F (1940)
Degree Days  
Heating Degree Days 9 13  
Month to date heating degree days 179 174  
Since 1 July heating degree days 6430 7572  
Cooling Degree Days 0 0  
Month to date cooling degree days 0 0  
Year to date cooling degree days 2 0  
Growing Degree Days 6 (Base 50)    
Moisture  
Dew Point 34 °F    
Average Humidity 53    
Maximum Humidity 86    
Minimum Humidity 19    
Precipitation  
Precipitation 0.00 in 0.11 in 1.28 in (1943)
Month to date precipitation 2.84 1.35  
Year to date precipitation 11.73 13.76  
Snow  
Snow 0.00 in 0.00 in 0.00 in (2002)
Month to date snowfall 0.0 0.1  
Since 1 July snowfall 49.1 66.2  
Snow Depth 0.00 in    
Sea Level Pressure  
Sea Level Pressure 30.01 in    
Wind  
Wind Speed 9 mph (West)    
Max Wind Speed 25 mph    
Max Gust Speed 36 mph    
Visibility 10 miles    
Events      
T = Trace of Precipitation, MM = Missing Value Source: NWS Daily Summary

Daily Weather History Graph

Daily Weather History Graph

Search for Another Location

Airport or City:

Trip Planner

Search our weather history database for the weather conditions in past years. The results will help you decide how hot, cold, wet, or windy it might be!

Date:

Astronomy

May. 12, 2012 Rise Set
Actual Time 5:09 AM EDT 7:54 PM EDT
Civil Twilight 4:36 AM EDT 8:28 PM EDT
Nautical Twilight 3:53 AM EDT 9:10 PM EDT
Astronomical Twilight 3:04 AM EDT 10:00 PM EDT
Moon 1:01 AM EDT (5/12) 11:50 AM EDT (5/12)
Length of Visible Light 15h 51m
Length of Day
14h 44m
Waning Gibbous, 53% of the Moon is Illuminated
May 12
Waning Gibbous
May 12
Last Quarter
May 20
New
May 28
First Quarter
Jun 4
Full

Hourly Weather History & Observations

Time (EDT) Temp. Windchill Dew Point Humidity Pressure Visibility Wind Dir Wind Speed Gust Speed Precip Events Conditions
12:53 AM 48.0 °F - 42.1 °F 80% 29.96 in 10.0 mi South 6.9 mph - N/A   Mostly Cloudy
1:53 AM 46.9 °F - 42.1 °F 83% 29.95 in 10.0 mi South 8.1 mph - N/A   Scattered Clouds
2:53 AM 46.9 °F - 41.0 °F 80% 29.95 in 10.0 mi SSW 5.8 mph - N/A   Partly Cloudy
3:53 AM 46.0 °F 42.5 °F 39.0 °F 76% 29.95 in 10.0 mi SSW 6.9 mph - N/A   Clear
4:53 AM 44.1 °F 41.5 °F 37.9 °F 79% 29.95 in 10.0 mi SSW 4.6 mph - N/A   Partly Cloudy
5:53 AM 43.0 °F 39.5 °F 37.0 °F 80% 29.97 in 10.0 mi WSW 5.8 mph - N/A   Partly Cloudy
6:53 AM 48.0 °F - 36.0 °F 63% 29.99 in 10.0 mi West 6.9 mph - N/A   Partly Cloudy
7:53 AM 53.1 °F - 36.0 °F 52% 29.99 in 10.0 mi WSW 6.9 mph - N/A   Partly Cloudy
8:53 AM 57.0 °F - 33.1 °F 40% 29.99 in 10.0 mi WSW 10.4 mph 16.1 mph N/A   Partly Cloudy
9:53 AM 59.0 °F - 28.9 °F 32% 29.98 in 10.0 mi West 11.5 mph 19.6 mph N/A   Partly Cloudy
10:53 AM 61.0 °F - 27.0 °F 27% 29.98 in 10.0 mi West 11.5 mph 19.6 mph N/A   Partly Cloudy
11:53 AM 64.9 °F - 24.1 °F 21% 29.96 in 10.0 mi NW 17.3 mph 28.8 mph N/A   Partly Cloudy
12:53 PM 66.9 °F - 23.0 °F 19% 29.96 in 10.0 mi NNW 16.1 mph 23.0 mph N/A   Partly Cloudy
1:53 PM 69.1 °F - 28.0 °F 22% 29.96 in 10.0 mi North 13.8 mph 35.7 mph N/A   Partly Cloudy
2:53 PM 68.0 °F - 28.9 °F 23% 29.98 in 10.0 mi North 18.4 mph 24.2 mph N/A   Partly Cloudy
3:53 PM 68.0 °F - 28.0 °F 22% 29.99 in 10.0 mi NNW 17.3 mph 23.0 mph N/A   Partly Cloudy
4:53 PM 66.9 °F - 30.0 °F 25% 30.01 in 10.0 mi North 16.1 mph 28.8 mph N/A   Partly Cloudy
5:53 PM 66.0 °F - 33.1 °F 29% 30.04 in 10.0 mi North 12.7 mph - N/A   Partly Cloudy
6:53 PM 64.0 °F - 34.0 °F 33% 30.07 in 10.0 mi NNE 11.5 mph - N/A   Scattered Clouds
7:53 PM 60.1 °F - 34.0 °F 38% 30.10 in 10.0 mi NE 5.8 mph - N/A   Scattered Clouds
8:53 PM 52.0 °F - 37.0 °F 57% 30.12 in 10.0 mi East 4.6 mph - N/A   Scattered Clouds
9:53 PM 46.9 °F - 37.0 °F 68% 30.13 in 10.0 mi Calm Calm - N/A   Scattered Clouds
10:53 PM 46.9 °F - 37.9 °F 71% 30.14 in 10.0 mi Calm Calm - N/A   Scattered Clouds
11:53 PM 50.0 °F - 39.0 °F 66% 30.14 in 10.0 mi SSE 4.6 mph - N/A   Mostly Cloudy